When you browse on this site, cookies collect data to enhance your experience and personalize the content and advertising you see.
Visit our Privacy Policy to learn more. By continuing to use the site, you agree to this use of cookies and data.
  • In Hungary
  • List of Countries
  • For 7 days
  • Water Temperature
  • Weather Map
  • News
  • Weather Widgets
  • user-avatar
    Login

    Hourly Weather Saransk

    Today, 24 February, Monday

    Time Temperature Precipitation Wind Pressure Humidity
    00:00 -4°C° 0.4 mm 7 mps 734 mmHg 96%
    01:00 -4°C° 0.3 mm 6 mps 734 mmHg 96%
    02:00 -4°C° 0.3 mm 6 mps 734 mmHg 96%
    03:00 -4°C° 0.3 mm 5 mps 733 mmHg 96%
    04:00 -4°C° 0.1 mm 5 mps 733 mmHg 96%
    05:00 -3°C° 0.1 mm 4 mps 733 mmHg 95%
    06:00 -2°C° 0.1 mm 4 mps 733 mmHg 95%
    07:00 -3°C° 0 mm 4 mps 733 mmHg 94%
    08:00 -3°C° 0 mm 4 mps 734 mmHg 93%
    09:00 -4°C° 0 mm 5 mps 734 mmHg 93%
    10:00 -4°C° 0 mm 5 mps 734 mmHg 94%
    11:00 -2°C° 0 mm 5 mps 734 mmHg 95%
    12:00 -2°C° 0 mm 5 mps 734 mmHg 96%
    13:00 -2°C° 0 mm 5 mps 735 mmHg 96%
    14:00 -2°C° 0 mm 5 mps 735 mmHg 96%
    15:00 -2°C° 0 mm 5 mps 735 mmHg 96%
    16:00 -2°C° 0 mm 5 mps 735 mmHg 96%
    17:00 -2°C° 0 mm 4 mps 735 mmHg 96%
    18:00 -2°C° 0 mm 4 mps 735 mmHg 95%
    19:00 -2°C° 0 mm 4 mps 735 mmHg 95%
    20:00 -2°C° 0 mm 3 mps 734 mmHg 95%
    21:00 -2°C° 0 mm 3 mps 734 mmHg 95%
    22:00 -3°C° 0.5 mm 4 mps 734 mmHg 95%
    23:00 -3°C° 0.5 mm 4 mps 734 mmHg 96%

    Tomorrow, 25 February, Tuesday

    Time Temperature Precipitation Wind Pressure Humidity
    00:00 -3°C° 0.5 mm 4 mps 733 mmHg 97%
    01:00 -2°C° 0.9 mm 4 mps 733 mmHg 98%
    02:00 -2°C° 0.9 mm 4 mps 732 mmHg 98%
    03:00 -1°C° 0.9 mm 3 mps 732 mmHg 99%
    04:00 -1°C° 0.9 mm 3 mps 731 mmHg 99%
    05:00 -1°C° 0.9 mm 3 mps 730 mmHg 99%
    06:00 0°C° 0.9 mm 3 mps 730 mmHg 99%
    07:00 -1°C° 1.3 mm 3 mps 729 mmHg 99%
    08:00 -1°C° 1.3 mm 3 mps 729 mmHg 99%
    09:00 -1°C° 1.3 mm 2 mps 729 mmHg 99%
    10:00 -1°C° 1.5 mm 2 mps 729 mmHg 99%
    11:00 -1°C° 1.5 mm 2 mps 728 mmHg 99%
    12:00 -1°C° 1.5 mm 2 mps 728 mmHg 99%
    13:00 -2°C° 1.1 mm 4 mps 728 mmHg 98%
    14:00 -3°C° 1.1 mm 6 mps 729 mmHg 98%
    15:00 -4°C° 1.1 mm 8 mps 729 mmHg 97%
    16:00 -4°C° 0.5 mm 8 mps 729 mmHg 96%
    17:00 -5°C° 0.5 mm 8 mps 730 mmHg 94%
    18:00 -5°C° 0.5 mm 8 mps 731 mmHg 93%
    19:00 -6°C° 0.1 mm 8 mps 731 mmHg 91%
    20:00 -6°C° 0.1 mm 8 mps 732 mmHg 88%
    21:00 -7°C° 0.1 mm 7 mps 733 mmHg 85%
    22:00 -8°C° 0 mm 7 mps 734 mmHg 87%
    23:00 -9°C° 0 mm 6 mps 734 mmHg 88%

    Day after tomorrow, 26 February, Wednesday

    Time Temperature Precipitation Wind Pressure Humidity
    00:00 -10°C° 0 mm 6 mps 735 mmHg 89%
    01:00 -11°C° 0 mm 5 mps 735 mmHg 90%
    02:00 -11°C° 0 mm 5 mps 736 mmHg 90%
    03:00 -12°C° 0 mm 5 mps 737 mmHg 91%
    04:00 -11°C° 0 mm 4 mps 737 mmHg 91%
    05:00 -12°C° 0 mm 4 mps 737 mmHg 91%
    06:00 -12°C° 0 mm 4 mps 737 mmHg 91%
    07:00 -12°C° 0 mm 3 mps 737 mmHg 90%
    08:00 -10°C° 0 mm 3 mps 737 mmHg 89%
    09:00 -9°C° 0 mm 3 mps 738 mmHg 88%
    10:00 -9°C° 0 mm 4 mps 737 mmHg 88%
    11:00 -8°C° 0 mm 4 mps 737 mmHg 88%
    12:00 -7°C° 0 mm 5 mps 737 mmHg 88%
    13:00 -6°C° 0 mm 5 mps 737 mmHg 89%
    14:00 -5°C° 0 mm 6 mps 737 mmHg 91%
    15:00 -4°C° 0 mm 6 mps 737 mmHg 92%
    16:00 -3°C° 0 mm 6 mps 736 mmHg 93%
    17:00 -3°C° 0 mm 6 mps 736 mmHg 93%
    18:00 -2°C° 0 mm 6 mps 736 mmHg 94%
    19:00 -2°C° 0.1 mm 6 mps 736 mmHg 96%
    20:00 -2°C° 0.1 mm 7 mps 736 mmHg 97%
    21:00 -2°C° 0.1 mm 7 mps 736 mmHg 99%
    22:00 -1°C° 0.2 mm 6 mps 736 mmHg 99%
    23:00 -1°C° 0.2 mm 6 mps 736 mmHg 99%

    27 February, Thursday

    Time Temperature Precipitation Wind Pressure Humidity
    00:00 -1°C° 0.2 mm 6 mps 736 mmHg 99%
    01:00 0°C° 0.1 mm 5 mps 736 mmHg 99%
    02:00 0°C° 0.1 mm 5 mps 736 mmHg 99%
    03:00 0°C° 0.1 mm 4 mps 737 mmHg 99%
    04:00 0°C° 0.1 mm 4 mps 737 mmHg 99%
    05:00 +1°C° 0.1 mm 3 mps 737 mmHg 99%
    06:00 0°C° 0.1 mm 3 mps 737 mmHg 99%
    07:00 0°C° 0.1 mm 3 mps 738 mmHg 99%
    08:00 +1°C° 0.1 mm 3 mps 738 mmHg 99%
    09:00 +1°C° 0.1 mm 3 mps 738 mmHg 99%
    10:00 +1°C° 0.1 mm 3 mps 738 mmHg 99%
    11:00 0°C° 0.1 mm 4 mps 738 mmHg 99%
    12:00 0°C° 0.1 mm 4 mps 738 mmHg 100%
    13:00 -1°C° 0 mm 4 mps 738 mmHg 99%
    14:00 -1°C° 0 mm 5 mps 738 mmHg 99%
    15:00 -1°C° 0 mm 5 mps 738 mmHg 99%
    16:00 -1°C° 0 mm 5 mps 738 mmHg 97%
    17:00 -1°C° 0 mm 5 mps 738 mmHg 95%
    18:00 -1°C° 0 mm 5 mps 738 mmHg 92%
    19:00 -1°C° 0 mm 5 mps 738 mmHg 91%
    20:00 -1°C° 0 mm 5 mps 738 mmHg 90%
    21:00 -1°C° 0 mm 5 mps 738 mmHg 88%
    22:00 -2°C° 0.1 mm 6 mps 737 mmHg 91%
    23:00 -1°C° 0.1 mm 6 mps 737 mmHg 93%

    28 February, Friday

    Time Temperature Precipitation Wind Pressure Humidity
    00:00 -1°C° 0.1 mm 6 mps 736 mmHg 95%
    01:00 -1°C° 0 mm 6 mps 736 mmHg 95%
    02:00 -1°C° 0 mm 6 mps 736 mmHg 94%
    03:00 -1°C° 0 mm 6 mps 736 mmHg 93%
    04:00 -1°C° 0 mm 6 mps 736 mmHg 93%
    05:00 0°C° 0 mm 5 mps 736 mmHg 92%
    06:00 -1°C° 0 mm 5 mps 736 mmHg 91%
    07:00 0°C° 0 mm 5 mps 736 mmHg 94%
    08:00 -1°C° 0 mm 6 mps 736 mmHg 96%
    09:00 -1°C° 0 mm 6 mps 736 mmHg 99%
    10:00 -1°C° 0 mm 6 mps 736 mmHg 99%
    11:00 -1°C° 0 mm 6 mps 736 mmHg 99%
    12:00 -1°C° 0 mm 6 mps 736 mmHg 99%
    13:00 -1°C° 0 mm 6 mps 736 mmHg 99%
    14:00 -1°C° 0 mm 6 mps 736 mmHg 99%
    15:00 -1°C° 0 mm 6 mps 735 mmHg 99%
    16:00 -1°C° 0 mm 7 mps 735 mmHg 99%
    17:00 -1°C° 0 mm 7 mps 735 mmHg 98%
    18:00 -1°C° 0 mm 7 mps 734 mmHg 98%
    19:00 -1°C° 0 mm 7 mps 734 mmHg 96%
    20:00 -1°C° 0 mm 7 mps 734 mmHg 94%
    21:00 -1°C° 0 mm 7 mps 734 mmHg 93%
    22:00 -1°C° 0.2 mm 7 mps 733 mmHg 92%
    23:00 -1°C° 0.2 mm 7 mps 733 mmHg 92%

    29 February, Saturday

    Time Temperature Precipitation Wind Pressure Humidity
    00:00 -1°C° 0.2 mm 7 mps 732 mmHg 91%
    01:00 -1°C° 0.3 mm 7 mps 732 mmHg 93%
    02:00 -1°C° 0.3 mm 7 mps 732 mmHg 94%
    03:00 -1°C° 0.3 mm 6 mps 732 mmHg 96%
    04:00 -1°C° 0.1 mm 6 mps 732 mmHg 96%
    05:00 -1°C° 0.1 mm 6 mps 733 mmHg 97%
    06:00 0°C° 0.1 mm 5 mps 733 mmHg 98%
    07:00 -1°C° 0.3 mm 5 mps 733 mmHg 97%
    08:00 -2°C° 0.3 mm 5 mps 734 mmHg 95%
    09:00 -4°C° 0.3 mm 5 mps 735 mmHg 94%
    10:00 -4°C° 0 mm 5 mps 735 mmHg 91%
    11:00 -4°C° 0 mm 5 mps 736 mmHg 89%
    12:00 -4°C° 0 mm 5 mps 736 mmHg 86%
    13:00 -4°C° 0 mm 4 mps 737 mmHg 84%
    14:00 -4°C° 0 mm 4 mps 737 mmHg 82%
    15:00 -4°C° 0 mm 4 mps 737 mmHg 80%
    16:00 -5°C° 0 mm 4 mps 738 mmHg 82%
    17:00 -6°C° 0 mm 3 mps 738 mmHg 84%
    18:00 -6°C° 0 mm 3 mps 738 mmHg 86%
    19:00 -6°C° 0 mm 3 mps 738 mmHg 86%
    20:00 -6°C° 0 mm 3 mps 738 mmHg 85%
    21:00 -6°C° 0 mm 3 mps 738 mmHg 84%
    22:00 -6°C° 0 mm 3 mps 738 mmHg 86%
    23:00 -5°C° 0 mm 4 mps 738 mmHg 87%
    Show more